Location: Heilbronn
(49.1548°N, 9.2780°E)
Time: 10:07:18
(UTC+01:00)

ISS - Pass Details

Date: 04 January 2018
Orbit: 402 x 407 km, 51.6° (Epoch: 21 January)

Event Time Altitude Azimuth Distance (km) Brightness Sun altitude
Exits shadow 06:53:14 24° 288° (WNW) 883 -2.8 -13.0°
Maximum altitude 06:54:56 53° 356° (N) 507 -3.5 -12.8°
Drops below altitude 10° 06:58:11 10° 75° (ENE) 1,472 -0.1 -12.3°
Sets 07:00:18 0° 81° (E) 2,334 1.1 -11.9°
